sat.trackr.live / text

‹ back to catalog

STARLINK-31272

NORAD 59162 · 2024-044L

PAYLOAD ACTIVE UNKNOWN

§ Identity

Operator
Country
US
Launch date
2024-03-04
Launch site
AFETR
Launch vehicle
Mass (kg)
RCS (m²)

Purposes: comms

External: N2YO · Heavens-Above · Gunter

§ Orbital elements

Epoch: 2026-05-25T02:16:02.869824Z

Period
94.27 min
Inclination
43.0046°
Eccentricity
0.0001756
Mean motion
15.27588607 rev/d
Perigee alt
481.8 km
Apogee alt
484.2 km
Semi-major
6,861.2 km
B*
5.8317e-5
RAAN
35.2819°
Arg perigee
270.8835°
Mean anomaly
89.1815°
Rev number
12,525

§ Raw data

STARLINK-312721 59162U 24044L   26145.09447766  .00001343  00000+0  58317-4 0  99962 59162  43.0046  35.2819 0001756 270.8835  89.1815 15.27588607125258

JSON: /api/v1/satellites/59162 · /tle

For live sub-satellite position, see the globe view (requires WebGL).

§ Visibility from observer

Set your observer location to see the next 7 days of passes ≥ 10°. The values pass through the URL so the page stays shareable.

No JS? Fill the form by hand. The geolocation button needs JavaScript.